Volver al catálogo

HYLAS 1

ActivoComunicacionesGEO
NORAD 37237·PAYLOAD·🇬🇧 United Kingdom

Lanzado Nov 26, 2010 desde Guiana Space Centre

Loading…

TLE

ActualizadoSource: Space-Track

Época: Sep 14, 2026, 10:55 UTC

1 37237U 10065A   26257.45543796 -.00000359  00000-0  00000-0 0  9997
2 37237   5.8636  71.8786 0003431 157.0879  43.7783  1.00641937  7782

Sigue HYLAS 1 en tiempo real con AllMySat

Download on the App Store